TimePDT,TemperatureF,Dew PointF,Humidity,Sea Level PressureIn,VisibilityMPH,Wind Direction,Wind SpeedMPH,Gust SpeedMPH,PrecipitationIn,Events,Conditions,WindDirDegrees,DateUTC
12:53 AM,48.0,42.1,80,29.97,10.0,Calm,Calm,-,N/A,,Mostly Cloudy,0,2013-03-27 07:53:00
1:53 AM,46.0,42.1,86,29.97,10.0,Calm,Calm,-,N/A,,Overcast,0,2013-03-27 08:53:00
2:53 AM,46.0,42.1,86,29.94,10.0,Calm,Calm,-,N/A,,Scattered Clouds,0,2013-03-27 09:53:00
3:53 AM,39.9,37.9,93,29.94,9.0,Calm,Calm,-,N/A,,Clear,0,2013-03-27 10:53:00
4:05 AM,41.0,37.4,87,29.94,1.5,Calm,Calm,-,N/A,,Clear,0,2013-03-27 11:05:00
4:17 AM,42.8,39.2,87,29.94,3.0,Calm,Calm,-,N/A,,Clear,0,2013-03-27 11:17:00
4:50 AM,39.2,37.4,93,29.94,1.0,Calm,Calm,-,N/A,,Mist,0,2013-03-27 11:50:00
4:53 AM,39.9,37.0,89,29.94,0.5,Calm,Calm,-,N/A,Fog,Fog,0,2013-03-27 11:53:00
5:10 AM,39.2,37.4,93,29.94,1.2,Calm,Calm,-,N/A,,Clear,0,2013-03-27 12:10:00
5:15 AM,39.2,37.4,93,29.94,4.0,Calm,Calm,-,N/A,,Clear,0,2013-03-27 12:15:00
5:48 AM,37.4,35.6,93,29.94,2.5,Calm,Calm,-,N/A,,Clear,0,2013-03-27 12:48:00
5:53 AM,39.0,37.0,93,29.94,8.0,Calm,Calm,-,N/A,,Clear,0,2013-03-27 12:53:00
6:53 AM,39.0,37.0,93,29.94,10.0,Calm,Calm,-,N/A,,Overcast,0,2013-03-27 13:53:00
7:53 AM,41.0,39.0,93,29.94,10.0,Calm,Calm,-,N/A,,Overcast,0,2013-03-27 14:53:00
8:53 AM,46.0,41.0,83,29.95,10.0,ENE,3.5,-,N/A,,Mostly Cloudy,60,2013-03-27 15:53:00
9:46 AM,51.8,42.8,71,29.95,10.0,ENE,3.5,-,N/A,,Scattered Clouds,70,2013-03-27 16:46:00
9:53 AM,51.1,43.0,74,29.95,10.0,NE,3.5,-,N/A,,Mostly Cloudy,40,2013-03-27 16:53:00
10:53 AM,52.0,42.1,69,29.94,10.0,East,4.6,-,N/A,,Overcast,100,2013-03-27 17:53:00
11:53 AM,57.0,44.1,62,29.94,10.0,Calm,Calm,-,N/A,,Mostly Cloudy,0,2013-03-27 18:53:00
12:53 PM,57.9,41.0,53,29.94,10.0,North,4.6,-,N/A,,Overcast,350,2013-03-27 19:53:00
1:53 PM,62.1,39.0,43,29.92,10.0,Calm,Calm,-,N/A,,Mostly Cloudy,0,2013-03-27 20:53:00
2:53 PM,63.0,39.9,43,29.91,10.0,Calm,Calm,-,N/A,,Clear,0,2013-03-27 21:53:00
3:53 PM,64.9,39.9,40,29.90,10.0,Calm,Calm,-,N/A,,Clear,0,2013-03-27 22:53:00
4:53 PM,66.0,39.9,38,29.89,10.0,Calm,Calm,-,N/A,,Clear,0,2013-03-27 23:53:00
5:53 PM,64.9,39.0,39,29.89,10.0,Calm,Calm,-,N/A,,Mostly Cloudy,0,2013-03-28 00:53:00
6:53 PM,63.0,41.0,45,29.90,10.0,Calm,Calm,-,N/A,,Overcast,0,2013-03-28 01:53:00
7:53 PM,55.9,48.9,77,29.92,10.0,SE,11.5,-,0.01,Rain,Light Rain,140,2013-03-28 02:53:00
8:39 PM,53.6,50.0,88,29.96,2.5,Calm,Calm,-,0.11,Rain,Light Rain,0,2013-03-28 03:39:00
8:46 PM,53.6,50.0,88,29.97,4.0,North,4.6,-,0.13,Rain,Light Rain,350,2013-03-28 03:46:00
8:53 PM,54.0,50.0,86,29.97,4.0,North,3.5,-,0.15,Rain,Light Rain,10,2013-03-28 03:53:00
9:53 PM,53.1,50.0,89,29.99,10.0,Calm,Calm,-,0.02,,Overcast,0,2013-03-28 04:53:00
10:53 PM,53.1,50.0,89,-9999,10.0,Calm,Calm,-,N/A,,Overcast,0,2013-03-28 05:53:00
11:53 PM,52.0,48.9,89,-9999,10.0,Calm,Calm,-,N/A,,Overcast,0,2013-03-28 06:53:00